sat.trackr.live / text

‹ back to catalog

KUIPER-00245

NORAD 67150 · 2025-301T

PAYLOAD ACTIVE UNKNOWN

§ Identity

Operator
Country
US
Launch date
2025-12-16
Launch site
AFETR
Launch vehicle
Mass (kg)
RCS (m²)

External: N2YO · Heavens-Above · Gunter

§ Orbital elements

Epoch: 2026-05-25T04:26:41.135712Z

Period
97.30 min
Inclination
51.9024°
Eccentricity
0.0000804
Mean motion
14.79956927 rev/d
Perigee alt
628.9 km
Apogee alt
630.0 km
Semi-major
7,007.6 km
B*
4.0590e-4
RAAN
104.8831°
Arg perigee
58.3535°
Mean anomaly
301.7506°
Rev number
2,481

§ Raw data

KUIPER-002451 67150U 25301T   26145.18519833  .00002876  00000+0  40590-3 0  99992 67150  51.9024 104.8831 0000804  58.3535 301.7506 14.79956927 24814

JSON: /api/v1/satellites/67150 · /tle

For live sub-satellite position, see the globe view (requires WebGL).

§ Visibility from observer

Set your observer location to see the next 7 days of passes ≥ 10°. The values pass through the URL so the page stays shareable.

No JS? Fill the form by hand. The geolocation button needs JavaScript.